Location: Unspecified
(0.0000°N, 0.0000°E)
Time: 23:06:08
(UTC+02:00)

N. Korean satellite - Visible Passes

Search period start: 22 October 2017 00:00
Search period end: 31 October 2017 23:00
Orbit: 459 x 517 km, 97.2° (Epoch: 22 October)

Date Brightness Start Highest point End Pass type
(mag) Time Alt. Az. Time Alt. Az. Time Alt. Az.
22 Oct 6.7 20:30:59 10° S 20:34:36 79° WSW 20:38:09 10° NNW visible
23 Oct 7.0 20:07:57 10° SSE 20:11:19 38° E 20:14:38 10° N visible
24 Oct 10.1 21:19:41 10° SW 21:21:16 12° WSW 21:22:50 10° WNW visible
25 Oct 8.7 20:54:51 10° SSW 20:58:00 29° WSW 21:01:06 10° NW visible
26 Oct 6.7 20:31:08 10° S 20:34:43 78° WSW 20:38:13 10° NNW visible
27 Oct 7.0 20:08:04 10° SSE 20:11:25 38° E 20:14:41 10° N visible
28 Oct 10.1 21:19:54 10° SW 21:21:21 12° WSW 21:22:46 10° WNW visible
29 Oct 8.7 19:54:58 10° SSW 19:58:04 28° WSW 20:01:06 10° NW visible
30 Oct 6.7 19:31:13 10° S 19:34:46 76° W 19:38:14 10° NNW visible
31 Oct 7.0 19:08:08 10° SSE 19:11:26 38° E 19:14:41 10° N visible
